Weather reports worldwide

Advertisment
Bradford, United Kingdom (99171): temperature & dewpoint: 02.08.2020 04:00:00 - 08.08.2020 04:00:00 (BST)Bradford, United Kingdom (99171): temperature -20cm & temperature -100cm: 02.08.2020 04:00:00 - 08.08.2020 04:00:00 (BST)Bradford, United Kingdom (99171): precipitation: 02.08.2020 04:00:00 - 08.08.2020 04:00:00 (BST)
Date & Time tt [°C] td [°C] tt -20cm [°C] tt -100cm [°C] rr [mm]
08.08.2020 04:00:00 - - - - -
08.08.2020 03:00:00 15,4 14,4 - - 0,0
08.08.2020 02:00:00 15,9 14,9 - - 0,0
08.08.2020 01:00:00 16,3 14,9 - - 0,0
08.08.2020 00:00:00 17,4 15,2 - - 0,0
07.08.2020 23:00:00 18,6 15,9 - - 0,0
07.08.2020 22:00:00 19,5 16,9 - - 0,0
07.08.2020 21:00:00 20,9 17,4 - - 0,0
07.08.2020 20:00:00 22,4 18,0 - - 0,0
07.08.2020 19:00:00 24,4 18,0 - - 0,0
07.08.2020 18:00:00 24,8 17,0 - - 0,0
07.08.2020 17:00:00 25,2 16,6 - - 0,0
07.08.2020 16:00:00 26,2 17,9 - - 0,0
07.08.2020 15:00:00 26,1 17,6 - - 0,0
07.08.2020 14:00:00 26,0 19,5 - - 0,0
07.08.2020 13:00:00 26,3 18,5 - - 0,0
07.08.2020 12:00:00 24,1 17,7 - - 0,0
07.08.2020 11:00:00 23,0 17,7 - - 0,0
07.08.2020 10:00:00 22,8 17,7 17,0 15,7 0,0
07.08.2020 09:00:00 21,3 18,5 - - 0,0
07.08.2020 08:00:00 18,9 18,0 - - 0,0
07.08.2020 07:00:00 17,1 16,5 - - 0,0
07.08.2020 06:00:00 16,8 16,2 - - 0,0
07.08.2020 05:00:00 16,0 15,2 - - 0,0
07.08.2020 04:00:00 16,2 15,3 - - 0,0
07.08.2020 03:00:00 16,6 15,7 - - 0,0
07.08.2020 02:00:00 16,6 15,6 - - 0,0
07.08.2020 01:00:00 17,1 15,6 - - 0,0
07.08.2020 00:00:00 17,3 15,7 - - 0,0
06.08.2020 23:00:00 18,5 16,2 - - 0,0
06.08.2020 22:00:00 19,7 16,4 - - 0,0
06.08.2020 21:00:00 21,0 16,1 - - 0,0
06.08.2020 20:00:00 21,9 15,7 - - 0,0
06.08.2020 19:00:00 22,4 15,0 - - 0,0
06.08.2020 18:00:00 23,3 14,9 - - 0,0
06.08.2020 17:00:00 22,0 14,6 - - 0,0
06.08.2020 16:00:00 21,8 14,8 - - 0,0
06.08.2020 15:00:00 22,0 15,8 - - 0,0
06.08.2020 14:00:00 20,1 15,0 - - 0,0
06.08.2020 13:00:00 19,4 14,8 - - 0,0
06.08.2020 12:00:00 18,7 14,5 - - 0,0
06.08.2020 11:00:00 19,8 14,2 - - 0,0
06.08.2020 10:00:00 19,0 14,5 16,7 15,7 0,0
06.08.2020 09:00:00 18,8 15,8 - - 0,0
06.08.2020 08:00:00 16,9 14,5 - - 0,0
06.08.2020 07:00:00 16,2 14,8 - - 0,0
06.08.2020 06:00:00 16,5 14,9 - - 0,0
06.08.2020 05:00:00 16,6 14,8 - - 0,0
06.08.2020 04:00:00 16,5 14,8 - - 0,0
06.08.2020 03:00:00 16,3 14,6 - - 0,0
06.08.2020 02:00:00 16,0 14,4 - - 0,0
06.08.2020 01:00:00 17,3 14,7 - - 0,0
06.08.2020 00:00:00 18,2 15,7 - - 0,0
05.08.2020 23:00:00 18,9 15,7 - - 0,0
05.08.2020 22:00:00 19,0 15,6 - - 0,0
05.08.2020 21:00:00 19,2 15,4 - - 0,0
05.08.2020 20:00:00 19,0 15,8 - - 0,0
05.08.2020 19:00:00 20,1 15,0 - - 0,0
05.08.2020 18:00:00 19,7 16,3 - - 0,2
05.08.2020 17:00:00 18,1 15,2 - - 1,2
05.08.2020 16:00:00 20,5 12,3 - - 0,0
05.08.2020 15:00:00 21,5 13,1 - - 0,0
05.08.2020 14:00:00 19,9 14,0 - - 0,0
05.08.2020 13:00:00 20,2 14,1 - - 0,0
05.08.2020 12:00:00 19,4 14,3 - - 0,0
05.08.2020 11:00:00 18,6 14,2 - - 0,0
05.08.2020 10:00:00 18,0 14,0 16,5 15,7 0,0
05.08.2020 09:00:00 17,8 14,1 - - 0,0
05.08.2020 08:00:00 17,1 13,8 - - 0,0
05.08.2020 07:00:00 16,7 13,5 - - 0,0
05.08.2020 06:00:00 16,2 13,6 - - 0,0
05.08.2020 05:00:00 16,4 13,6 - - 0,0
05.08.2020 04:00:00 16,6 13,9 - - 0,2
05.08.2020 03:00:00 16,4 13,8 - - 0,0
05.08.2020 02:00:00 16,6 14,2 - - 0,0
05.08.2020 01:00:00 16,1 14,1 - - 0,8
05.08.2020 00:00:00 16,9 13,3 - - 0,0
04.08.2020 23:00:00 17,0 13,2 - - 0,0
04.08.2020 22:00:00 17,0 13,2 - - 0,0
04.08.2020 21:00:00 17,0 13,0 - - 0,0
04.08.2020 20:00:00 17,4 12,9 - - 0,0
04.08.2020 19:00:00 17,3 12,5 - - 0,0
04.08.2020 18:00:00 17,4 11,7 - - 0,0
04.08.2020 17:00:00 17,5 11,6 - - 0,0
04.08.2020 16:00:00 16,6 11,1 - - 0,0
04.08.2020 15:00:00 16,1 10,7 - - 0,0
04.08.2020 14:00:00 14,7 10,3 - - 0,0
04.08.2020 13:00:00 12,7 10,5 - - 0,0
04.08.2020 12:00:00 13,7 9,3 - - 0,0
04.08.2020 11:00:00 12,8 10,0 - - 0,6
04.08.2020 10:00:00 12,5 9,9 16,7 15,7 0,4
04.08.2020 09:00:00 12,1 8,6 - - 0,0
04.08.2020 08:00:00 12,0 7,8 - - 0,0
04.08.2020 07:00:00 10,9 8,6 - - 0,0
04.08.2020 06:00:00 9,6 7,8 - - 0,0
04.08.2020 05:00:00 9,8 8,4 - - 0,0
04.08.2020 04:00:00 8,0 7,1 - - 0,0
04.08.2020 03:00:00 8,4 7,4 - - 0,0
04.08.2020 02:00:00 8,7 7,4 - - 0,0
04.08.2020 01:00:00 9,5 7,7 - - 0,0
04.08.2020 00:00:00 10,5 7,6 - - 0,0
03.08.2020 23:00:00 11,5 8,3 - - 0,0
03.08.2020 22:00:00 11,4 7,0 - - 0,0
03.08.2020 21:00:00 13,2 6,1 - - 0,0
03.08.2020 20:00:00 14,6 6,2 - - 0,0
03.08.2020 19:00:00 16,0 6,4 - - 0,0
03.08.2020 18:00:00 16,5 5,8 - - 0,0
03.08.2020 17:00:00 16,6 6,1 - - 0,0
03.08.2020 16:00:00 16,4 7,2 - - 0,0
03.08.2020 15:00:00 16,8 7,2 - - 0,0
03.08.2020 14:00:00 15,6 7,1 - - 0,0
03.08.2020 13:00:00 16,1 6,7 - - 0,0
03.08.2020 12:00:00 15,3 6,9 - - 0,0
03.08.2020 11:00:00 16,6 7,4 - - 0,0
03.08.2020 10:00:00 15,5 7,9 17,2 15,7 0,0
03.08.2020 09:00:00 13,0 9,8 - - 0,0
03.08.2020 08:00:00 12,2 9,6 - - 0,0
03.08.2020 07:00:00 11,6 9,7 - - 0,0
03.08.2020 06:00:00 12,2 10,2 - - 0,0
03.08.2020 05:00:00 11,9 10,0 - - 0,0
03.08.2020 04:00:00 11,9 9,9 - - 0,0
03.08.2020 03:00:00 12,7 10,2 - - 0,0
03.08.2020 02:00:00 12,6 9,8 - - 0,0
03.08.2020 01:00:00 12,7 9,4 - - 0,0
03.08.2020 00:00:00 13,0 9,5 - - 0,0
02.08.2020 23:00:00 12,9 8,6 - - 0,0
02.08.2020 22:00:00 13,5 8,7 - - 0,0
02.08.2020 21:00:00 14,0 9,1 - - 0,0
02.08.2020 20:00:00 15,1 8,3 - - 0,0
02.08.2020 19:00:00 15,8 8,0 - - 0,0
02.08.2020 18:00:00 16,9 9,0 - - 0,0
02.08.2020 17:00:00 16,3 9,2 - - 0,0
02.08.2020 16:00:00 17,2 9,0 - - 0,0
02.08.2020 15:00:00 17,6 8,6 - - 0,0
02.08.2020 14:00:00 16,9 8,6 - - 0,0
02.08.2020 13:00:00 17,7 9,6 - - 0,0
02.08.2020 12:00:00 16,5 9,2 - - 0,0
02.08.2020 11:00:00 16,4 10,0 - - 0,0
02.08.2020 10:00:00 16,2 10,8 17,2 15,5 0,0
02.08.2020 09:00:00 15,6 11,7 - - 0,0
02.08.2020 08:00:00 14,7 10,7 - - 0,0
02.08.2020 07:00:00 13,0 10,8 - - 0,0
02.08.2020 06:00:00 12,8 10,6 - - 0,0
02.08.2020 05:00:00 12,9 10,4 - - 0,0
02.08.2020 04:00:00 13,0 10,1 - - 0,0

tt = temperature
td = dewpoint
tt -20cm = temperature -20cm
tt -100cm = temperature -100cm
rr = precipitation

Next stations